LiveATC.Net - Listen to live air traffic control over the Internet!


ICAO: USCC  IATA: CEK   Airport: Chelyabinsk Airport
City: Chelyabinsk
Country: Russia   Continent: Asia
USCC METAR Weather: USCC 250100Z 16002MPS 110V200 4800 1600W BR NSC 08/08 Q1019 R27/000060 TEMPO 0200 FG VV005 RMK QFE744
USCC Flight Activity (FlightAware)

USCC Twr/App/Control
Feed Status: DOWN
Last heard on: 2018-09-18 00:15:03 (7 days 1 hours 46 minutes ago)
USCC Twr/App/Control Audio Archives
FacilityFrequency
Airfield Services163.380
Airfield Services163.500
Airfield Services163.950
Airfield Services164.150
Chelyabinsk Approach124.700
Chelyabinsk Control (North)125.400
Chelyabinsk Control (South)125.500
Chelyabinsk Tower125.200
Chelyabinsk Transit131.600
Emergency/Guard121.500

NOTICE

Unauthorized use prohibited. See LiveATC.net Terms of Service


Find LiveATC Audio Streams


Airport/ARTCC Code

Frequency Search
(e.g., 124.400, 128.75)
Site-wide search
 


Browse LiveATC Feeds
Top 50 LiveATC Feeds
Bad Weather Areas

LiveATC FAQ
Offer a LiveATC Feed
Contact LiveATC.net
Press Inquiries

LiveATC on iPhone
LiveATC on Android

Windows Phone
Windows 8/10

LiveATC Mobile
(Mobile browser)

ATC Audio Archives
Interesting Recordings

LiveATC Forums


Home Page
About LiveATC.net
Make a Donation
Terms of Use
Privacy Policy

Canadian Air Freqs

AIRMETs/SIGMETs

FAA Airport Status
Nat'l Airspace Status
Arrival Demand Charts


Server Software By:
Icecast.org
Liquidsoap